Hourly Data Report for September 09, 2017

All times are specified in Local Standard Time (LST). Add 1 hour to adjust for Daylight Saving Time where and when it is observed.

NAPPAN AUTO
NOVA SCOTIA

45°45'34.400" N
64°14'29.200" W
19.80 m
8203702
71311
XNP

Download Data

Hourly Data (September 2017)
Hourly Data Report for September 9, 2017
Temp Definition
°C
Dew Point Temp Definition
°C
Rel Hum Definition
%
Wind Dir Definition
10's deg

Wind Spd Definition
km/h
Visibility Definition
km
Stn Press Definition
kPa
Hmdx Definition


Wind Chill Definition


Weather Definition


TIME
00:00 10.5 9.4 93 19 6   101.72     LegendNANA
01:00 10.4 9.0 92 16 6   101.72     LegendNANA
02:00 8.9 8.0 94 20 5   101.74     LegendNANA
03:00 8.3 7.9 97 19 6   101.73     LegendNANA
04:00 8.5 8.0 97 19 3   101.73     LegendNANA
05:00 10.2 9.9 98 17 8   101.74     LegendNANA
06:00 9.8 9.5 98 18 10   101.82     LegendNANA
07:00 10.2 9.9 98 19 8   101.89     LegendNANA
08:00 11.3 11.0 98 18 8   101.93     LegendNANA
09:00 12.5 12.2 98 19 7   101.95     LegendNANA
10:00 14.9 14.5 98 17 8   101.97     LegendNANA
11:00 17.6 13.1 75 30 5   101.94     LegendNANA
12:00 19.1 11.7 62 31 6   101.92     LegendNANA
13:00 20.3 9.2 49 27 8   101.92     LegendNANA
14:00 21.1 11.3 54 27 7   101.87     LegendNANA
15:00 20.2 14.3 69 36 25   101.88     LegendNANA
16:00 19.4 14.2 72 2 17   101.89     LegendNANA
17:00 18.0 13.0 73 2 18   101.91     LegendNANA
18:00 17.6 14.2 81 3 11   101.92     LegendNANA
19:00 15.0 12.9 87 2 7   101.96     LegendNANA
20:00 14.1 13.1 94 2 9   102.01     LegendNANA
21:00 14.4 13.4 94 1 8   102.03     LegendNANA
22:00 14.2 13.4 95 0 1   102.08     LegendNANA
23:00 14.3 13.2 93 35 14   102.06     LegendNANA

Notes on Data Quality.

Legend

  • E = Estimated
  • M = Missing
  • NA = Not Available
  • ‡ = Partner data that is not subject to review by the National Climate Archives
Date modified: